Temp
-21 -21 -21 -20 -20 -20 -20 -19 -17 -17 -17 -15 -15 -14 -13 -12 -12 -11 -11 -11 -10 -10 -10 -10 -10 -10 -10 -10 -10 -10 -10 -9 -9 -9 -10 -9 -9 -9 -9 -9 -9 -9 -8 -8 -8
-21 -21 -21 -20 -20 -20 -19 -18 -16 -17 -17 -16 -15 -15 -14 -13 -12 -12 -11 -11 -10 -10 -10 -10 -10 -10 -10 -10 -10 -10 -10 -10 -9 -9 -9 -9 -9 -9 -9 -9 -9 -9 -8 -8 -9
-20 -20 -20 -20 -20 -19 -18 -17 -17 -17 -17 -16 -15 -14 -14 -13 -13 -12 -11 -11 -11 -10 -10 -11 -11 -10 -10 -10 -10 -10 -10 -10 -10 -10 -9 -9 -9 -9 -9 -9 -9 -9 -9 -9 -9
-20 -20 -20 -20 -20 -20 -19 -18 -17 -18 -17 -16 -15 -15 -14 -14 -13 -13 -12 -11 -11 -11 -11 -11 -11 -11 -11 -11 -11 -11 -10 -10 -10 -10 -10 -9 -9 -9 -9 -9 -9 -9 -9 -9 -9
-20 -20 -20 -20 -20 -20 -19 -19 -18 -18 -17 -16 -15 -15 -14 -14 -13 -13 -12 -12 -11 -11 -11 -11 -11 -11 -11 -11 -11 -11 -10 -10 -10 -10 -10 -10 -10 -10 -10 -9 -9 -9 -9 -9 -9
-20 -20 -21 -20 -19 -19 -19 -19 -18 -18 -17 -16 -15 -15 -14 -14 -14 -13 -12 -12 -12 -12 -12 -12 -11 -11 -11 -11 -11 -11 -11 -10 -10 -10 -10 -10 -10 -10 -10 -9 -9 -9 -9 -10 -9
-19 -19 -19 -19 -19 -19 -19 -18 -18 -18 -17 -17 -15 -15 -14 -14 -14 -13 -13 -12 -12 -12 -12 -12 -11 -11 -11 -11 -11 -11 -11 -10 -10 -10 -10 -10 -10 -10 -10 -10 -10 -10 -10 -10 -10
-19 -19 -18 -19 -19 -18 -19 -18 -18 -18 -17 -17 -16 -15 -14 -15 -14 -14 -13 -13 -13 -12 -12 -12 -12 -12 -11 -11 -11 -11 -11 -11 -11 -11 -10 -10 -10 -10 -10 -10 -10 -10 -10 -10 -10
-19 -19 -19 -18 -19 -19 -18 -18 -19 -18 -18 -17 -16 -15 -15 -15 -15 -14 -14 -13 -13 -13 -12 -12 -12 -12 -11 -11 -11 -11 -11 -11 -11 -11 -11 -10 -10 -10 -10 -10 -10 -10 -10 -10 -10
-18 -19 -19 -19 -19 -19 -19 -19 -18 -18 -17 -17 -16 -15 -15 -15 -14 -14 -14 -13 -13 -13 -12 -12 -12 -12 -11 -11 -11 -11 -11 -11 -11 -11 -11 -11 -11 -10 -10 -10 -10 -10 -10 -10 -10
-19 -18 -18 -18 -18 -18 -18 -18 -18 -17 -17 -17 -16 -15 -15 -14 -14 -14 -13 -13 -13 -12 -12 -12 -12 -12 -11 -11 -11 -11 -11 -11 -11 -11 -11 -11 -11 -11 -11 -10 -10 -10 -10 -10 -11
-18 -18 -18 -18 -18 -18 -17 -17 -17 -17 -17 -16 -15 -15 -15 -14 -14 -13 -13 -13 -13 -12 -12 -12 -12 -12 -11 -11 -11 -11 -11 -11 -11 -11 -11 -12 -11 -11 -10 -10 -10 -10 -11 -11 -11
-18 -18 -18 -18 -18 -18 -18 -17 -17 -17 -16 -16 -15 -15 -14 -14 -13 -13 -13 -12 -12 -12 -12 -12 -12 -11 -11 -11 -11 -11 -11 -11 -11 -11 -11 -11 -11 -11 -10 -10 -11 -11 -12 -12 -12
-17 -17 -17 -17 -17 -17 -17 -17 -16 -16 -16 -15 -15 -15 -14 -14 -13 -13 -13 -12 -12 -12 -12 -12 -12 -12 -12 -12 -12 -12 -12 -11 -11 -11 -11 -11 -11 -11 -11 -11 -12 -12 -12 -12 -12
-16 -16 -16 -16 -16 -16 -16 -16 -16 -16 -16 -16 -15 -14 -14 -14 -13 -13 -13 -12 -13 -12 -12 -12 -12 -12 -12 -12 -12 -12 -12 -11 -11 -11 -11 -12 -12 -12 -12 -12 -12 -12 -12 -13 -13
-15 -16 -16 -16 -16 -16 -15 -15 -15 -15 -15 -15 -15 -14 -14 -14 -14 -13 -13 -13 -13 -12 -12 -12 -12 -12 -12 -12 -12 -12 -11 -11 -11 -12 -12 -12 -12 -12 -13 -13 -12 -12 -13 -13 -14
-15 -15 -15 -16 -16 -15 -15 -15 -15 -15 -14 -14 -14 -14 -14 -14 -14 -13 -13 -13 -13 -13 -13 -13 -12 -12 -12 -12 -12 -12 -12 -12 -12 -12 -13 -13 -13 -13 -13 -13 -13 -13 -13 -13 -14
-16 -16 -15 -15 -15 -15 -15 -15 -15 -15 -14 -14 -14 -14 -14 -13 -13 -13 -13 -13 -13 -13 -13 -13 -13 -13 -13 -12 -12 -13 -13 -13 -13 -13 -13 -13 -13 -13 -13 -13 -13 -13 -13 -13 -13
-15 -15 -15 -15 -15 -15 -14 -14 -14 -14 -14 -14 -14 -14 -14 -14 -14 -14 -13 -13 -13 -13 -13 -13 -13 -13 -13 -13 -13 -13 -13 -13 -13 -13 -13 -13 -13 -13 -13 -13 -13 -14 -14 -13 -13
-15 -15 -15 -15 -15 -15 -15 -14 -15 -14 -14 -14 -14 -14 -14 -14 -14 -14 -13 -13 -13 -13 -13 -13 -13 -13 -13 -14 -14 -14 -13 -13 -13 -13 -13 -13 -13 -14 -14 -13 -13 -14 -14 -13 -13
-15 -15 -15 -15 -15 -15 -15 -15 -15 -15 -14 -14 -14 -14 -14 -14 -14 -14 -14 -14 -14 -14 -14 -14 -14 -14 -14 -14 -13 -13 -13 -13 -13 -13 -13 -13 -14 -14 -14 -14 -14 -14 -14 -14 -14
-14 -14 -14 -14 -14 -14 -14 -14 -15 -14 -14 -14 -14 -14 -14 -14 -14 -14 -14 -14 -14 -14 -14 -14 -14 -14 -14 -14 -14 -14 -14 -13 -13 -13 -13 -13 -13 -14 -14 -14 -14 -14 -14 -14 -14
-15 -14 -14 -14 -14 -14 -14 -14 -14 -14 -14 -14 -14 -14 -14 -14 -14 -14 -14 -14 -14 -14 -13 -13 -13 -13 -13 -14 -13 -13 -13 -13 -13 -13 -13 -14 -13 -14 -14 -14 -14 -14 -14 -14 -13
-14 -14 -14 -13 -13 -13 -13 -13 -13 -14 -14 -14 -14 -14 -14 -14 -14 -14 -14 -14 -14 -13 -13 -13 -14 -13 -13 -13 -14 -14 -14 -14 -14 -13 -14 -13 -14 -14 -13 -13 -13 -13 -13 -13 -13
-15 -14 -14 -14 -14 -14 -13 -13 -13 -13 -13 -13 -13 -13 -14 -14 -14 -14 -14 -14 -14 -14 -13 -13 -13 -13 -13 -13 -13 -13 -13 -13 -13 -13 -13 -13 -13 -14 -13 -13 -13 -13 -13 -13 -14
-15 -15 -14 -14 -14 -13 -13 -14 -13 -13 -13 -13 -13 -13 -13 -13 -13 -13 -13 -13 -13 -13 -13 -13 -13 -13 -13 -13 -13 -13 -13 -13 -13 -13 -13 -13 -13 -13 -14 -13 -13 -14 -14 -14 -13
-14 -14 -14 -14 -14 -14 -14 -13 -14 -14 -13 -13 -13 -13 -13 -13 -13 -13 -13 -13 -13 -13 -13 -13 -13 -13 -13 -13 -13 -13 -13 -13 -13 -13 -13 -13 -14 -14 -14 -14 -14 -14 -14 -14 -13
Height
5614 5616 5615 5619 5624 5633 5644 5656 5665 5667 5679 5697 5711 5727 5741 5756 5770 5781 5793 5802 5810 5817 5823 5830 5836 5840 5845 5849 5853 5857 5861 5865 5869 5871 5871 5872 5873 5874 5874 5875 5875 5874 5871 5869 5868
5623 5623 5620 5623 5629 5637 5648 5655 5665 5668 5678 5692 5712 5727 5740 5753 5766 5778 5790 5798 5807 5814 5820 5827 5832 5838 5843 5846 5850 5855 5859 5862 5865 5866 5868 5870 5870 5870 5871 5871 5871 5870 5867 5865 5864
5630 5630 5628 5630 5632 5640 5645 5652 5658 5662 5678 5692 5711 5728 5739 5751 5764 5776 5787 5796 5803 5810 5817 5824 5830 5836 5841 5845 5849 5853 5857 5858 5860 5863 5864 5865 5866 5866 5866 5867 5866 5865 5862 5861 5859
5636 5636 5635 5636 5636 5641 5649 5652 5654 5664 5679 5694 5712 5727 5739 5750 5763 5774 5785 5794 5801 5808 5815 5821 5827 5832 5837 5842 5847 5851 5854 5856 5858 5860 5861 5862 5862 5863 5861 5862 5861 5859 5858 5857 5855
5640 5642 5643 5640 5643 5647 5654 5659 5661 5670 5682 5695 5713 5729 5740 5751 5763 5773 5783 5791 5799 5806 5813 5821 5826 5832 5836 5841 5845 5848 5851 5852 5855 5857 5858 5858 5858 5858 5856 5856 5855 5854 5853 5851 5850
5642 5643 5646 5647 5651 5658 5663 5666 5672 5678 5687 5699 5716 5731 5742 5754 5763 5773 5783 5790 5798 5804 5812 5818 5824 5829 5833 5837 5841 5845 5848 5850 5851 5853 5853 5854 5854 5853 5852 5850 5849 5847 5846 5844 5842
5649 5649 5651 5656 5661 5662 5665 5671 5677 5684 5693 5704 5718 5732 5744 5755 5764 5773 5781 5790 5797 5803 5809 5816 5822 5827 5831 5835 5839 5842 5845 5846 5847 5848 5848 5849 5849 5848 5847 5844 5843 5841 5839 5837 5835
5659 5659 5660 5663 5666 5669 5673 5677 5683 5691 5699 5709 5722 5734 5746 5756 5765 5773 5781 5789 5797 5803 5810 5815 5820 5825 5829 5833 5836 5839 5841 5842 5843 5843 5844 5844 5845 5842 5840 5840 5838 5834 5832 5830 5827
5669 5669 5670 5673 5675 5678 5680 5686 5693 5700 5708 5716 5727 5739 5749 5759 5767 5775 5782 5790 5797 5803 5809 5814 5819 5823 5827 5830 5833 5835 5837 5838 5839 5839 5838 5838 5839 5835 5834 5834 5831 5828 5826 5824 5821
5681 5681 5681 5684 5686 5688 5692 5697 5702 5708 5716 5722 5733 5745 5753 5762 5770 5777 5784 5791 5797 5802 5808 5813 5817 5821 5824 5827 5830 5831 5832 5834 5834 5835 5832 5831 5832 5827 5826 5825 5824 5821 5818 5816 5813
5694 5693 5693 5693 5694 5698 5702 5706 5713 5720 5724 5731 5739 5749 5757 5765 5773 5779 5786 5792 5797 5803 5808 5812 5816 5819 5822 5824 5826 5827 5828 5828 5828 5827 5827 5825 5824 5822 5819 5817 5816 5813 5810 5808 5805
5707 5706 5705 5705 5705 5708 5712 5717 5722 5729 5733 5738 5744 5752 5761 5768 5776 5782 5787 5793 5798 5802 5805 5810 5813 5816 5818 5820 5821 5822 5822 5822 5821 5820 5819 5818 5817 5815 5813 5810 5807 5805 5802 5799 5797
5717 5716 5715 5716 5717 5719 5721 5725 5731 5736 5741 5746 5749 5756 5764 5771 5776 5782 5788 5792 5796 5800 5803 5806 5810 5812 5814 5815 5816 5817 5816 5816 5816 5815 5814 5812 5810 5807 5805 5803 5800 5797 5794 5792 5790
5728 5727 5728 5728 5731 5731 5733 5735 5738 5742 5748 5753 5756 5760 5766 5772 5777 5781 5786 5791 5795 5798 5801 5804 5806 5808 5809 5810 5811 5811 5810 5810 5810 5810 5808 5806 5804 5801 5799 5797 5794 5791 5789 5787 5785
5736 5736 5736 5737 5739 5741 5743 5744 5747 5750 5753 5757 5760 5764 5768 5774 5778 5782 5785 5789 5792 5795 5798 5801 5802 5803 5804 5805 5805 5806 5806 5805 5804 5803 5801 5799 5797 5796 5794 5792 5790 5788 5785 5782 5780
5743 5743 5743 5743 5744 5746 5747 5750 5753 5757 5758 5761 5763 5767 5771 5774 5778 5781 5785 5788 5790 5792 5795 5796 5797 5799 5799 5800 5801 5801 5800 5798 5798 5796 5795 5793 5792 5791 5789 5787 5786 5785 5782 5778 5777
5748 5747 5748 5748 5749 5749 5751 5753 5756 5758 5762 5764 5766 5769 5772 5774 5777 5780 5783 5785 5788 5790 5791 5793 5794 5794 5795 5795 5795 5795 5793 5792 5792 5790 5789 5788 5788 5786 5784 5782 5782 5781 5778 5776 5775
5753 5751 5751 5751 5752 5753 5754 5756 5758 5759 5762 5764 5767 5769 5772 5775 5777 5779 5781 5783 5784 5786 5787 5788 5790 5789 5789 5789 5789 5788 5788 5787 5786 5786 5786 5784 5783 5782 5780 5778 5777 5776 5775 5774 5774
5756 5755 5754 5753 5754 5755 5757 5758 5760 5761 5763 5764 5767 5769 5771 5773 5775 5776 5778 5779 5780 5781 5783 5783 5783 5783 5783 5783 5784 5783 5783 5783 5782 5782 5781 5781 5780 5778 5776 5774 5773 5773 5772 5771 5770
5759 5758 5757 5756 5755 5756 5757 5758 5759 5761 5763 5765 5766 5767 5769 5771 5773 5774 5775 5777 5778 5778 5778 5779 5778 5778 5779 5779 5779 5779 5780 5779 5778 5777 5777 5776 5774 5773 5771 5771 5771 5770 5768 5767 5765
5760 5759 5759 5758 5757 5757 5757 5758 5759 5760 5761 5763 5765 5766 5768 5769 5770 5771 5772 5773 5773 5773 5773 5774 5775 5777 5776 5776 5775 5776 5775 5775 5774 5773 5772 5771 5771 5769 5768 5767 5766 5765 5763 5761 5758
5761 5760 5759 5759 5760 5758 5758 5758 5758 5759 5760 5761 5762 5764 5765 5766 5767 5767 5768 5769 5770 5771 5772 5772 5772 5772 5772 5772 5771 5771 5771 5770 5769 5769 5766 5765 5767 5764 5763 5762 5760 5758 5757 5754 5751
5758 5758 5758 5758 5759 5759 5759 5759 5759 5759 5760 5761 5761 5762 5763 5764 5765 5765 5766 5767 5767 5768 5768 5769 5769 5769 5768 5769 5767 5767 5766 5764 5763 5761 5761 5758 5760 5757 5755 5753 5752 5751 5749 5746 5743
5756 5755 5756 5756 5757 5758 5759 5759 5759 5759 5759 5759 5760 5761 5762 5763 5763 5764 5764 5764 5764 5764 5765 5765 5765 5764 5764 5763 5762 5762 5760 5758 5756 5755 5754 5753 5751 5749 5745 5742 5743 5742 5738 5736 5733
5755 5754 5753 5754 5755 5755 5756 5757 5758 5758 5758 5758 5758 5759 5759 5760 5760 5760 5761 5761 5761 5761 5761 5760 5760 5759 5757 5756 5756 5755 5754 5750 5748 5746 5744 5745 5744 5738 5736 5734 5731 5730 5729 5726 5723
5754 5753 5752 5752 5751 5752 5752 5753 5754 5755 5756 5756 5756 5756 5756 5756 5757 5756 5756 5756 5755 5755 5754 5753 5753 5752 5751 5747 5746 5747 5746 5743 5740 5738 5735 5732 5735 5727 5726 5723 5721 5718 5717 5715 5711
5754 5752 5751 5751 5750 5749 5748 5748 5749 5749 5750 5750 5750 5751 5751 5752 5751 5750 5749 5749 5749 5747 5746 5745 5743 5742 5743 5739 5737 5738 5736 5732 5730 5727 5724 5724 5723 5718 5716 5712 5709 5709 5707 5704 5700
Wind_Speed
19 12 13 18 26 34 42 58 29 31 50 51 65 65 64 63 60 56 52 47 44 40 35 33 31 31 32 34 34 34 32 28 23 20 21 19 19 20 19 19 19 21 24 26 26
17 14 12 16 28 40 45 48 24 38 44 49 60 63 61 61 59 55 52 48 45 40 37 35 33 32 33 34 34 33 31 28 25 24 23 22 21 22 22 22 23 23 26 28 28
16 14 12 17 35 47 58 26 21 42 48 49 57 60 59 58 57 54 52 48 45 41 38 36 33 33 33 33 33 31 30 28 26 23 23 23 22 23 24 24 25 25 28 30 31
12 13 13 17 38 21 37 8 25 44 49 49 55 59 57 56 55 53 51 47 44 41 38 36 35 35 34 34 31 28 27 27 25 24 22 23 23 23 27 26 27 29 30 30 28
5 7 11 13 23 21 20 28 20 42 50 53 54 56 54 54 53 51 49 46 43 41 38 35 34 33 33 30 29 28 27 27 24 24 25 24 23 23 27 28 30 32 33 31 28
13 10 7 19 21 27 19 26 31 37 48 52 51 53 51 51 50 48 46 44 42 40 37 35 34 33 33 31 30 28 26 25 24 24 25 25 24 24 27 29 31 33 32 30 30
24 22 25 32 23 31 16 29 31 37 47 49 51 51 49 48 47 45 43 42 41 39 37 35 34 32 30 29 28 27 26 25 25 24 25 26 25 26 28 30 32 34 33 32 34
35 30 23 23 25 23 33 35 29 40 46 47 49 49 45 45 42 41 40 38 37 36 34 33 32 29 29 27 27 26 26 24 25 24 25 27 25 31 34 33 34 35 36 36 38
30 31 29 28 24 27 28 26 34 40 40 45 46 44 42 39 38 38 37 35 34 32 31 30 29 27 27 26 26 24 24 25 25 23 24 28 27 36 38 38 36 37 36 37 38
33 34 34 33 34 33 32 31 35 36 39 43 41 39 38 35 34 33 32 32 31 30 28 27 25 25 25 24 24 25 24 24 26 28 30 33 31 38 38 37 37 37 37 38 39
32 32 31 32 35 34 32 31 32 34 38 40 40 36 35 33 31 30 28 27 27 25 23 22 22 22 22 22 23 22 22 24 29 31 33 34 30 30 34 36 37 38 39 38 36
30 29 28 28 29 29 30 30 32 33 34 38 39 36 32 31 28 27 26 24 22 21 20 20 20 20 21 22 22 23 25 27 28 28 30 30 30 32 35 39 39 37 36 35 33
28 28 29 27 26 26 27 29 30 29 32 33 35 35 33 31 29 25 24 23 22 22 21 21 21 21 22 23 24 28 29 26 30 31 34 33 34 35 36 37 35 33 29 26 25
25 26 25 24 24 23 22 25 27 28 29 28 30 33 32 30 29 27 25 24 22 21 20 20 21 22 24 25 24 26 26 27 31 34 34 34 35 33 33 30 20 20 23 25 23
20 20 23 24 23 21 21 20 21 22 23 26 28 29 31 29 27 26 25 23 22 21 21 21 20 19 20 20 22 23 27 29 32 34 35 34 33 27 24 16 17 19 21 21 18
18 17 17 19 21 21 21 19 18 17 16 21 23 21 23 23 21 21 20 19 19 18 18 17 17 17 19 20 23 27 28 30 32 32 32 28 25 21 19 19 20 18 13 8 8
16 15 13 14 16 17 17 16 15 14 16 16 16 16 17 17 17 16 15 15 16 15 15 16 18 19 21 23 26 28 27 27 26 22 21 19 18 19 19 22 21 14 8 5 8
18 16 12 10 11 13 15 14 13 16 15 15 14 14 14 14 14 14 14 15 17 18 20 21 23 24 24 24 24 23 22 19 19 16 17 19 18 17 16 15 16 14 13 11 13
17 16 12 10 8 8 9 9 12 12 15 15 16 15 16 15 15 16 17 18 19 20 21 21 22 21 20 21 21 18 16 19 20 20 19 17 17 16 14 12 12 15 16 17 19
15 14 12 10 7 6 5 7 8 11 12 13 15 15 15 15 16 17 18 18 19 19 19 18 19 20 19 17 16 17 19 19 19 19 17 17 16 17 17 15 14 14 15 17 20
14 12 9 8 8 5 3 4 4 5 9 10 12 12 12 14 14 14 14 15 14 14 14 13 12 14 15 16 17 17 17 18 19 21 21 19 19 19 20 19 19 21 22 24 26
12 10 8 6 5 4 4 2 3 4 5 7 9 9 9 10 11 13 13 13 12 12 12 13 13 13 14 15 17 18 19 21 22 22 23 24 21 24 24 25 27 27 28 29 32
17 10 8 7 5 3 1 1 2 2 4 6 7 8 8 9 9 10 10 11 12 13 13 14 15 16 18 19 20 21 22 24 25 26 24 29 26 28 30 30 32 31 31 34 36
14 14 11 9 9 9 8 6 5 5 5 6 7 8 9 10 11 12 13 13 15 16 18 19 20 21 21 23 24 24 26 28 30 30 30 30 32 33 36 37 35 36 38 38 39
11 11 12 11 12 13 14 14 13 12 11 11 12 12 13 14 15 16 17 18 19 21 22 23 24 25 27 28 28 28 29 33 34 35 37 34 35 40 42 42 41 39 36 37 39
14 13 9 9 13 15 16 17 18 20 20 20 20 20 20 21 21 22 23 24 25 26 28 29 30 31 30 35 35 33 34 36 37 39 41 43 38 44 41 40 41 41 40 41 43
12 13 12 11 12 13 15 18 20 23 25 26 26 28 28 28 29 30 30 31 32 33 35 35 37 38 37 40 41 40 39 41 43 43 45 42 39 40 40 42 44 44 44 45 47
Wind_Direction
83 91 171 187 183 178 176 161 186 186 185 199 197 194 192 191 192 192 195 195 199 199 197 198 200 202 203 202 203 209 215 216 217 226 235 249 260 269 281 285 292 297 300 305 308
75 88 118 166 177 169 166 160 173 192 184 189 195 192 190 190 189 189 192 193 196 196 194 197 199 204 204 203 204 211 215 219 220 227 237 249 262 273 278 286 292 297 301 303 307
66 78 100 143 172 160 160 146 181 183 185 181 188 189 188 187 186 188 190 192 194 194 193 196 199 202 206 205 208 211 217 220 227 233 241 253 264 273 278 281 288 295 301 305 308
66 91 87 140 176 184 184 160 153 176 172 173 184 186 186 185 185 186 188 191 192 192 193 196 199 201 203 208 210 217 222 228 234 243 250 254 261 269 275 283 291 298 301 303 302
58 97 112 137 182 185 165 156 164 166 165 168 178 183 184 183 183 185 188 190 190 192 192 198 202 207 206 211 215 221 228 234 241 249 256 261 263 272 279 287 292 299 298 298 294
65 66 119 135 164 169 179 155 161 164 162 162 174 180 183 182 181 184 187 189 190 191 192 198 202 208 211 213 219 226 233 240 247 254 262 267 275 281 288 293 299 303 301 296 292
70 79 94 105 140 169 136 162 154 161 158 160 169 177 182 180 180 183 186 189 191 192 193 200 205 209 214 218 225 230 237 245 252 259 266 273 281 285 289 294 301 302 298 295 292
85 88 85 114 92 122 135 147 149 159 158 159 166 174 179 178 180 182 185 188 191 193 197 201 205 211 218 223 228 236 243 251 257 263 270 275 286 288 288 295 300 295 293 295 295
73 93 98 106 110 122 126 131 145 153 155 157 163 170 172 176 179 182 184 187 191 195 199 202 207 213 220 227 233 240 249 258 266 274 279 283 291 291 291 292 292 292 293 294 294
89 92 100 103 110 108 116 129 138 145 153 149 158 165 169 173 179 184 185 189 191 196 201 206 211 218 225 233 240 247 256 264 274 280 284 286 288 290 291 290 290 293 296 295 291
83 90 96 103 106 111 117 125 134 142 146 147 151 159 165 170 177 183 184 189 195 200 204 213 219 227 235 242 250 257 268 278 284 283 281 280 286 290 293 296 296 295 294 290 289
71 79 88 95 98 110 119 125 134 140 145 149 150 154 160 166 174 182 185 190 194 202 209 218 228 236 242 249 254 263 272 279 282 287 289 291 292 294 292 292 294 294 292 290 287
80 72 74 78 93 109 114 124 132 139 147 151 151 153 161 166 172 180 187 194 200 207 215 224 233 242 248 253 263 270 273 277 284 293 293 294 292 293 292 292 294 294 290 289 286
80 88 90 89 90 96 104 120 129 136 145 149 155 159 164 169 175 180 190 198 206 215 222 228 235 246 254 262 267 271 278 284 284 288 291 290 289 289 291 293 290 284 288 283 281
83 89 96 100 102 102 107 111 126 132 145 153 157 163 168 172 180 186 192 201 210 218 228 236 244 251 256 266 272 278 280 283 285 285 285 286 287 290 287 280 278 287 294 280 269
79 89 101 107 108 109 110 111 120 132 142 149 156 163 171 174 181 189 197 204 213 220 228 235 245 253 261 267 271 274 276 278 279 280 282 282 281 282 279 276 276 284 290 274 243
66 79 91 107 117 122 124 131 137 139 140 144 145 153 162 165 176 185 193 201 211 219 228 237 244 250 256 261 266 270 274 277 279 277 274 271 278 285 285 270 266 273 281 245 232
51 59 82 103 114 134 142 138 144 152 160 159 159 165 168 179 187 192 200 210 219 226 233 241 246 253 258 262 265 268 272 273 273 268 269 275 280 288 294 276 255 253 251 246 248
40 47 55 77 113 143 155 157 151 158 167 169 177 180 186 193 202 209 219 226 232 236 243 249 254 256 261 265 269 262 260 263 269 272 269 273 282 281 284 291 272 258 262 264 268
32 32 39 52 70 105 149 175 185 189 184 185 187 192 200 209 215 220 226 233 241 245 250 253 256 258 258 253 254 260 264 267 267 264 268 274 276 282 285 285 282 277 280 280 279
9 20 24 31 47 62 98 141 167 190 203 207 210 215 218 223 225 231 234 241 245 249 249 244 242 243 245 254 258 260 260 260 261 267 272 274 275 277 280 283 284 280 277 279 278
343 351 355 0 17 41 58 104 190 199 193 192 200 211 218 224 231 237 240 238 232 228 230 246 250 251 254 258 261 262 262 266 269 272 276 279 280 283 281 278 277 275 275 278 278
325 319 312 319 310 315 323 137 145 171 196 212 215 215 216 214 218 220 225 231 235 238 242 246 252 257 260 262 262 263 267 271 272 274 278 281 288 286 285 281 280 282 283 281 281
317 308 297 285 287 279 273 266 246 233 223 220 222 229 231 235 235 237 240 243 246 250 253 255 260 263 266 266 267 270 274 275 276 279 280 283 285 287 284 284 285 287 284 285 284
329 318 306 289 283 277 274 268 263 259 250 243 242 242 244 246 248 252 258 260 263 266 268 270 271 272 274 274 275 275 277 279 282 284 283 283 285 284 285 287 287 287 288 288 287
11 349 315 302 302 283 272 277 272 268 266 263 260 257 256 258 259 260 262 264 267 269 272 275 276 276 277 279 279 280 281 280 282 281 282 282 287 284 285 285 286 289 288 287 287
359 3 353 314 307 302 285 273 273 274 270 270 270 270 270 270 269 269 269 270 272 274 275 277 278 278 278 279 280 283 283 282 281 280 281 282 282 281 281 282 284 286 288 289 288